Wind_Speed
4 4 4 4 4 4 5 5 5 5 5 5 5 5 5 5 4 4 5 5 5 5 5 6 6 6 7 8 8 7 7 7 7 7 7 6 5 5 4 5 5 5 4
4 4 4 4 5 5 5 5 6 6 6 6 6 6 5 6 6 5 6 5 5 5 5 6 6 7 7 7 8 8 7 7 7 7 7 7 6 5 5 5 6 5 5
5 5 5 5 6 6 6 6 6 6 7 7 6 6 6 6 6 7 6 6 6 6 6 7 7 7 8 8 8 8 8 7 8 8 8 8 7 6 6 6 6 6 6
6 6 6 7 6 7 7 7 7 8 8 8 7 7 7 7 7 8 8 7 7 7 6 6 7 7 8 8 8 8 8 8 8 8 9 9 8 8 7 7 7 7 7
7 7 7 7 7 8 8 8 7 7 8 8 8 8 8 8 8 8 8 7 8 8 8 7 7 8 8 9 9 9 9 9 8 8 9 10 10 9 9 8 8 8 8
8 8 8 7 8 8 8 8 8 7 8 8 8 8 8 8 8 8 7 7 7 8 8 7 7 8 9 9 10 10 10 10 10 9 9 9 10 9 9 9 9 9 9
8 8 8 8 8 9 9 9 9 8 8 8 9 9 9 9 9 9 8 8 8 8 8 8 8 9 10 10 10 11 11 11 10 10 10 10 10 10 10 10 10 10 11
8 7 7 8 8 8 9 9 9 9 9 9 9 9 8 9 9 9 9 9 9 9 9 9 9 8 9 10 10 11 12 12 12 11 10 10 11 10 11 11 11 11 11
8 8 8 8 8 8 9 9 8 8 8 9 8 8 8 9 9 9 10 9 9 8 8 9 10 9 9 10 11 12 12 12 12 11 11 11 11 11 11 11 12 12 12
8 8 8 8 9 9 9 8 8 8 8 8 8 8 8 9 9 9 10 10 9 9 8 9 9 9 10 10 11 11 12 13 12 12 12 12 12 12 12 11 12 13 13
9 9 9 9 9 9 9 9 8 8 8 8 8 8 8 8 9 9 10 10 10 10 9 9 9 9 10 10 11 11 12 12 12 13 13 12 12 13 13 12 13 13 13
9 9 10 10 10 10 9 9 8 8 8 8 9 9 9 9 9 9 9 10 9 9 9 9 10 10 11 11 11 12 12 12 12 13 12 12 12 12 13 13 13 13 14
9 10 10 10 11 10 10 9 9 8 8 8 8 9 9 9 9 10 9 9 10 10 9 9 9 10 11 12 11 12 12 12 12 12 12 12 12 12 12 12 12 13 13
10 10 10 11 11 10 10 9 9 9 9 8 8 9 9 9 9 10 10 10 10 10 10 10 9 9 10 11 11 11 12 12 12 13 12 12 11 12 12 12 13 13 13
11 10 10 11 11 10 10 9 9 9 9 9 9 9 9 10 10 10 10 10 11 11 11 10 10 10 10 11 12 12 12 12 12 12 12 12 12 12 12 12 12 12 13
10 10 10 10 10 10 10 10 10 9 9 9 9 9 9 9 9 9 9 9 10 9 9 10 10 10 11 11 12 12 12 12 12 12 12 12 11 11 12 12 13 12 12
10 10 10 10 9 9 9 9 9 9 9 8 8 9 8 8 9 9 8 8 8 9 9 9 9 10 10 10 11 11 11 11 11 12 12 12 12 11 12 12 12 12 11
10 10 10 9 9 9 9 9 8 8 8 8 8 8 8 7 8 9 9 8 8 8 9 9 9 9 9 9 9 10 10 10 11 11 11 12 12 11 12 12 11 12 12
10 9 9 8 8 8 8 8 8 8 8 8 8 8 7 7 7 8 8 8 8 8 8 8 8 8 8 8 9 9 10 10 10 11 11 11 11 10 11 11 11 11 11
9 8 8 8 8 8 8 8 8 8 7 7 7 7 7 7 7 8 7 7 7 7 7 7 7 8 8 8 8 8 9 9 9 9 9 10 10 10 10 10 11 10 11
8 8 8 7 8 8 8 8 7 7 7 7 6 6 7 6 7 7 6 6 6 7 7 7 7 7 7 7 7 8 8 9 9 8 9 9 10 9 9 9 10 10 10
8 7 7 7 8 8 8 8 7 7 6 6 6 5 6 6 6 6 5 5 6 6 6 6 6 7 7 7 7 8 8 8 8 8 9 9 9 9 9 9 10 10 10
8 8 8 8 8 8 8 7 6 6 6 5 5 5 5 6 5 5 5 5 5 5 5 5 6 6 7 7 7 7 7 7 7 8 8 9 9 9 10 10 10 11 11
8 8 9 9 9 8 7 7 6 5 5 5 5 5 5 6 5 5 5 5 5 5 5 6 6 6 6 7 7 7 7 7 7 8 8 8 9 10 10 11 12 12 12
8 8 9 9 8 7 7 6 5 5 5 6 6 6 5 6 6 6 6 5 5 5 6 6 6 6 7 7 7 6 7 7 8 8 8 9 9 10 10 12 12 12 11
9 9 8 8 8 8 7 6 6 6 6 6 7 6 6 6 6 7 6 6 6 6 6 7 7 7 7 8 7 6 7 7 8 8 8 9 9 9 10 11 11 11 12
Wind_Direction
273 283 291 296 293 298 299 293 290 283 278 270 265 266 266 266 264 264 262 261 260 256 241 226 222 217 216 215 211 211 211 213 212 212 215 215 213 215 215 213 212 219 217
279 286 292 296 297 296 299 296 288 285 275 269 267 268 268 265 264 263 261 259 259 258 252 237 226 221 217 217 217 216 220 222 221 223 223 223 224 223 229 230 227 228 228
290 290 298 298 294 295 298 295 285 279 274 273 274 276 275 271 265 266 261 262 261 259 255 240 226 224 222 223 224 223 226 228 226 229 229 229 228 231 235 234 233 236 236
294 293 297 301 295 292 295 290 286 283 279 276 280 283 281 274 270 267 263 263 259 259 256 243 233 230 229 230 230 227 228 233 234 235 235 230 231 234 237 237 238 239 242
295 293 292 298 296 293 292 287 286 285 282 277 278 279 280 277 273 269 267 264 259 255 251 246 238 237 235 233 233 231 229 233 238 240 238 237 235 236 240 243 245 245 245
298 296 296 297 297 297 293 288 286 283 280 281 278 278 282 280 277 272 268 266 261 255 249 246 244 242 238 239 237 235 233 235 240 244 243 242 240 240 247 248 250 250 251
306 302 300 302 297 298 296 292 285 281 281 280 277 279 282 280 276 272 273 268 262 257 252 250 249 247 243 244 240 235 236 240 240 244 246 245 245 247 249 249 250 253 255
307 308 307 307 307 306 303 297 290 284 282 279 274 276 278 280 279 275 275 273 270 265 256 253 249 250 244 242 245 239 238 243 244 247 250 248 247 250 253 253 251 254 257
306 306 306 306 305 306 306 304 295 288 284 279 273 272 274 278 277 274 276 275 272 269 260 255 254 251 249 247 247 243 242 245 248 249 252 251 251 252 254 256 254 256 258
306 305 304 305 307 306 305 303 299 290 282 279 273 273 275 275 276 276 273 272 269 268 261 256 256 253 252 251 248 246 247 247 248 252 254 253 254 254 255 256 257 259 259
307 308 308 309 310 307 304 301 299 293 283 281 279 277 276 277 278 278 273 272 270 266 263 260 258 257 256 254 250 247 248 248 250 252 253 253 255 255 255 258 260 261 260
305 307 309 311 310 308 305 301 300 293 287 285 284 283 281 279 277 276 275 269 269 266 263 261 262 265 263 261 256 249 248 249 250 252 254 254 254 256 258 261 263 263 263
303 306 309 311 308 306 303 300 297 292 288 286 288 286 284 281 278 276 276 273 269 266 267 266 267 268 270 266 261 255 252 251 249 252 254 254 255 258 259 262 266 267 266
304 306 309 311 309 307 303 299 295 295 288 286 289 287 286 284 279 276 275 274 273 271 271 271 269 274 274 269 265 263 262 258 255 256 256 256 257 258 261 264 266 267 266
305 307 311 312 310 307 305 302 295 297 293 290 290 290 290 287 283 279 278 275 272 272 273 274 271 276 276 269 263 261 262 260 257 259 259 260 260 260 260 262 265 267 267
305 306 312 313 313 312 309 307 299 295 292 292 292 292 289 287 285 285 283 279 276 274 274 276 273 274 274 270 262 260 263 264 261 257 259 260 262 262 260 262 265 267 270
306 309 313 315 315 316 316 313 304 296 292 292 294 295 288 285 289 291 290 285 281 279 277 276 276 276 275 269 265 265 266 264 263 257 255 256 259 260 262 262 264 266 271
309 309 311 313 314 316 318 316 313 304 292 292 295 297 291 291 295 293 289 283 279 279 278 276 275 274 275 272 268 269 268 269 265 260 257 255 258 261 262 261 261 263 269
309 309 313 314 313 317 319 319 316 311 301 297 299 297 297 299 293 293 289 283 280 280 282 279 275 274 275 273 272 270 266 267 267 263 259 254 253 258 261 263 265 269 272
310 305 311 315 314 317 319 319 320 314 310 306 301 302 303 301 295 296 293 287 285 285 284 282 276 277 277 278 278 275 272 269 269 267 263 258 258 260 262 265 265 270 275
312 309 308 311 314 314 317 317 320 318 313 308 304 303 305 303 302 298 290 290 291 286 282 283 280 282 284 282 278 277 278 272 270 270 266 265 263 261 261 263 267 272 276
311 311 311 310 314 312 314 315 316 320 319 313 306 301 306 312 313 305 291 291 293 291 286 285 289 288 289 291 287 286 282 276 274 273 268 265 264 264 266 266 270 272 276
314 311 311 311 316 318 318 317 312 316 321 320 319 311 308 313 317 311 300 297 293 292 295 294 296 297 299 297 293 287 285 284 276 275 270 268 266 268 271 271 270 272 275
312 308 308 310 311 313 318 319 311 314 321 319 318 313 309 308 307 311 308 304 295 294 301 302 301 301 303 303 300 296 290 288 279 276 275 273 269 269 273 270 273 277 279
310 308 309 308 306 307 310 316 311 314 313 313 313 312 311 308 304 304 306 302 291 292 299 300 298 299 299 300 297 296 295 292 289 284 277 274 274 275 274 273 276 278 281
312 311 309 306 305 306 305 302 302 310 313 313 310 303 302 302 306 308 301 299 295 294 298 300 296 298 300 301 295 293 297 295 293 289 284 279 276 276 278 278 279 280 283
Height
5873 5873 5873 5873 5873 5872 5872 5872 5871 5871 5871 5871 5871 5871 5871 5871 5871 5871 5871 5871 5871 5871 5871 5871 5872 5873 5873 5874 5875 5876 5876 5877 5877 5878 5879 5879 5880 5881 5882 5882 5883 5884 5885
5873 5872 5872 5872 5872 5872 5871 5871 5870 5870 5870 5870 5870 5870 5870 5870 5870 5870 5870 5870 5870 5870 5870 5870 5871 5872 5873 5874 5874 5875 5876 5876 5877 5877 5878 5879 5880 5881 5881 5882 5883 5883 5884
5872 5872 5872 5871 5871 5871 5870 5870 5870 5869 5869 5869 5869 5869 5869 5869 5869 5869 5869 5869 5869 5869 5868 5868 5870 5871 5872 5873 5873 5874 5875 5875 5876 5877 5877 5878 5879 5880 5881 5881 5882 5882 5883
5871 5871 5871 5870 5870 5870 5869 5869 5868 5868 5868 5868 5868 5868 5868 5868 5868 5868 5868 5868 5868 5868 5868 5868 5869 5870 5871 5872 5872 5873 5874 5874 5875 5876 5876 5877 5878 5879 5879 5880 5881 5881 5882
5871 5870 5870 5870 5869 5869 5868 5868 5868 5867 5867 5867 5867 5867 5867 5867 5867 5867 5867 5867 5867 5867 5867 5868 5868 5869 5870 5871 5871 5872 5872 5873 5873 5874 5875 5876 5876 5877 5878 5879 5879 5880 5881
5870 5869 5869 5869 5868 5868 5867 5867 5867 5866 5866 5866 5866 5866 5866 5866 5866 5865 5865 5865 5866 5866 5867 5867 5867 5868 5869 5869 5870 5870 5871 5871 5872 5873 5874 5874 5875 5876 5876 5877 5878 5878 5879
5869 5868 5868 5867 5867 5866 5866 5866 5866 5865 5865 5865 5865 5864 5864 5864 5864 5864 5864 5864 5864 5864 5865 5865 5866 5866 5867 5867 5868 5869 5869 5870 5871 5872 5872 5873 5873 5874 5875 5875 5876 5877 5877
5868 5867 5867 5866 5866 5865 5865 5864 5864 5864 5863 5863 5863 5863 5863 5863 5863 5862 5862 5862 5862 5863 5863 5864 5864 5865 5865 5866 5866 5867 5868 5868 5869 5870 5871 5871 5872 5872 5873 5873 5874 5875 5875
5866 5866 5866 5865 5864 5864 5863 5863 5862 5862 5862 5862 5862 5862 5861 5861 5861 5861 5861 5861 5861 5861 5861 5862 5862 5863 5863 5864 5864 5865 5865 5867 5867 5868 5869 5869 5870 5870 5871 5871 5872 5873 5873
5865 5865 5864 5864 5863 5862 5862 5861 5861 5860 5860 5860 5860 5860 5860 5859 5859 5859 5859 5859 5859 5859 5859 5860 5860 5861 5862 5862 5863 5863 5864 5864 5865 5866 5867 5867 5868 5868 5869 5869 5870 5870 5871
5864 5863 5863 5862 5862 5861 5860 5860 5859 5859 5859 5858 5858 5858 5858 5858 5857 5857 5857 5857 5857 5857 5858 5858 5858 5859 5860 5860 5861 5861 5862 5862 5863 5864 5864 5865 5865 5866 5866 5867 5868 5868 5869
5863 5862 5862 5861 5860 5859 5858 5858 5858 5857 5857 5857 5857 5857 5856 5856 5856 5855 5855 5855 5855 5855 5856 5856 5856 5857 5857 5858 5858 5859 5860 5860 5861 5862 5862 5862 5863 5863 5864 5865 5865 5866 5866
5861 5861 5860 5859 5858 5857 5857 5856 5856 5855 5855 5855 5855 5855 5854 5854 5854 5853 5853 5853 5853 5853 5854 5854 5854 5855 5855 5856 5856 5857 5857 5858 5859 5859 5860 5860 5861 5861 5862 5862 5863 5863 5864
5860 5859 5858 5858 5857 5856 5855 5854 5854 5854 5853 5853 5853 5853 5852 5852 5852 5852 5851 5851 5851 5852 5852 5852 5853 5853 5853 5854 5854 5854 5855 5856 5856 5857 5857 5858 5858 5859 5859 5860 5860 5861 5861
5858 5857 5857 5856 5855 5854 5854 5853 5853 5852 5852 5851 5851 5851 5850 5850 5850 5850 5849 5849 5849 5850 5850 5850 5850 5851 5851 5851 5852 5852 5852 5853 5853 5854 5855 5855 5856 5856 5857 5858 5858 5858 5859
5857 5856 5855 5854 5854 5853 5852 5852 5851 5851 5850 5850 5849 5849 5849 5848 5848 5848 5847 5847 5847 5847 5847 5848 5848 5849 5849 5849 5849 5850 5850 5850 5851 5852 5852 5853 5853 5854 5854 5855 5856 5856 5856
5855 5854 5854 5853 5852 5851 5851 5850 5849 5849 5848 5848 5848 5847 5847 5847 5846 5846 5846 5845 5846 5846 5846 5846 5846 5846 5846 5847 5847 5847 5847 5847 5848 5849 5850 5850 5851 5851 5852 5853 5853 5854 5853
5853 5853 5852 5852 5851 5850 5849 5849 5848 5847 5847 5846 5846 5846 5845 5845 5845 5844 5844 5844 5844 5844 5844 5844 5844 5844 5844 5844 5844 5845 5845 5845 5845 5846 5847 5847 5848 5849 5849 5850 5851 5851 5852
5852 5851 5851 5850 5850 5849 5848 5847 5847 5846 5845 5845 5845 5844 5844 5843 5843 5842 5842 5842 5842 5842 5842 5842 5842 5842 5842 5842 5843 5843 5843 5843 5843 5844 5844 5845 5846 5846 5847 5848 5848 5848 5849
5850 5850 5850 5849 5849 5848 5847 5847 5846 5845 5845 5844 5843 5843 5842 5842 5841 5841 5841 5840 5840 5841 5841 5841 5840 5840 5841 5841 5841 5841 5840 5841 5841 5841 5842 5842 5843 5844 5844 5845 5846 5846 5846
5849 5849 5849 5848 5848 5847 5846 5846 5845 5844 5843 5843 5842 5842 5841 5841 5840 5840 5839 5839 5839 5839 5839 5839 5839 5839 5839 5839 5839 5839 5839 5839 5839 5839 5840 5840 5841 5841 5842 5843 5843 5844 5844
5849 5848 5848 5847 5847 5846 5845 5844 5844 5843 5842 5842 5841 5841 5840 5840 5839 5838 5838 5838 5838 5838 5838 5838 5838 5838 5837 5837 5837 5837 5837 5837 5837 5837 5838 5838 5838 5839 5840 5840 5841 5841 5841
5848 5847 5847 5846 5846 5845 5844 5843 5843 5842 5842 5841 5840 5840 5839 5839 5838 5838 5838 5837 5837 5837 5837 5837 5837 5837 5836 5836 5835 5835 5835 5835 5835 5835 5836 5836 5836 5837 5837 5838 5838 5839 5839
5847 5846 5846 5845 5845 5844 5843 5842 5842 5841 5841 5840 5840 5839 5839 5838 5838 5837 5837 5837 5836 5836 5836 5836 5836 5835 5835 5835 5834 5834 5834 5833 5833 5833 5834 5834 5834 5835 5835 5836 5836 5836 5836
5846 5845 5845 5844 5843 5843 5842 5842 5841 5841 5840 5840 5839 5839 5838 5838 5837 5837 5836 5836 5836 5835 5835 5835 5835 5834 5834 5833 5833 5832 5832 5832 5832 5832 5832 5832 5833 5833 5833 5833 5833 5833 5833
5845 5844 5843 5842 5842 5842 5841 5841 5840 5840 5839 5839 5838 5837 5837 5837 5836 5836 5835 5835 5835 5834 5834 5834 5833 5833 5832 5832 5831 5831 5831 5830 5830 5830 5830 5830 5830 5831 5830 5830 5830 5830 5830